Find BRO-22

NORAD ID: 69502 Int'l Des: NNA 2026-131 Owner: UNSEEN Country: F operational

当前视图

正在加载3D地球...

About BRO-22

BRO-22 (NORAD 69502) is a satellite launched Jun 12, 2026 by UNSEEN of F. with a mass of 10.00 kg.

即将过境

Passes for default location (London). Set your location on the main map for personalized predictions.

高度历史

Loading altitude history...

两行轨道根数

1 69502U 26132A 26163.14938610 .00000269 00000-0 30315-4 0 9999
2 69502 97.6783 226.9296 0006515 253.7332 106.3171 14.94204437 21
Epoch: Jun 12, 2026 • Age: 27 hours

当前状态

高度 593.3 km
速度 7.56 km/s
星下点 35.13°N, 144.96°W
发射日期 Jun 12, 2026
运行时间 1 day
类型 other

技术详情

分类 Payload
质量 10.00 kg
干质量 10.00 kg
总质量 10.00 kg
长度 0.40 m
直径 0.20 m
跨度 0.40 m
形状 Box
制造商 GOMSP
平台类型 Cubesat 8U
阶段状态 In Orbit
所有者/国家 UNSEEN/F

Most Searched